STARLINK-35142

Last updated on Tue Sep 16 2025 00:02:07 GMT+0000 (Coordinated Universal Time)

1 65434U 25194A 25257.63949836 -.00525595 00000+0 -79180-2 0 9991 2 65434 97.6037 108.7727 0002353 97.9880 262.1642 15.56519795 3023
UTC large
Height (km)
Speed (km/s)
/
Latitude / Longitude
Inclination (degrees)
Orbital Period (minutes)
Azimuth
Elevation
Range (km)
Doppler Factor

Next 0 passes for location: London (51.5072 / 0.1276)

Sorry there are no passes over London.